SBI3725 URWW-UWKD

Flight info

Callsign SBI3725
Flight time 1h 14m
Altitude 37000
Route RODUN1E RODUN R807 UROBO P135 DAFOS T789 SONUM SONUM1R
Aircraft A320/M-SDE3FGHIRWY/LB1

Departure

Time 2026-05-07 20:02
Airport Volgograd International Airport (URWW)

Arrival

Time 2026-05-07 21:16
Airport Kazan International Airport (UWKD)
Time Latitude Longitude Altitude Speed Heading
2026-05-07 19:42 48.78997 44.35169 118 ft 0 kts 340°
2026-05-07 19:54 48.78984 44.35176 480 ft 2 kts 340°
2026-05-07 19:55 48.78969 44.35185 479 ft 2 kts 340°
2026-05-07 19:55 48.78953 44.35194 482 ft 2 kts 348°
2026-05-07 19:55 48.78937 44.35190 481 ft 2 kts 65°
2026-05-07 19:55 48.78933 44.35172 478 ft 1 kts 77°
2026-05-07 19:56 48.78932 44.35170 478 ft 0 kts 84°
2026-05-07 19:58 48.78937 44.35175 478 ft 1 kts 24°
2026-05-07 19:59 48.78940 44.35164 476 ft 1 kts 292°
2026-05-07 19:59 48.78934 44.35157 479 ft 2 kts 225°
2026-05-07 19:59 48.78918 44.35133 481 ft 8 kts 222°
2026-05-07 19:59 48.78825 44.35146 482 ft 18 kts 161°
2026-05-07 20:00 48.78701 44.35207 486 ft 20 kts 162°
2026-05-07 20:00 48.78683 44.35215 481 ft 0 kts 163°
2026-05-07 20:00 48.78642 44.35234 479 ft 14 kts 163°
2026-05-07 20:00 48.78545 44.35193 479 ft 0 kts 242°
2026-05-07 20:01 48.78452 44.34901 478 ft 71 kts 245°
2026-05-07 20:01 48.78142 44.33918 472 ft 133 kts 244°
2026-05-07 20:01 48.77680 44.32438 660 ft 164 kts 245°
2026-05-07 20:02 48.77174 44.30838 1182 ft 178 kts 245°
2026-05-07 20:02 48.76600 44.29037 1594 ft 201 kts 247°
2026-05-07 20:02 48.75964 44.27037 2040 ft 222 kts 247°
2026-05-07 20:02 48.75258 44.24815 2500 ft 246 kts 247°
2026-05-07 20:03 48.74566 44.22317 2978 ft 268 kts 260°
2026-05-07 20:03 48.74699 44.19443 3461 ft 285 kts 294°
2026-05-07 20:03 48.75918 44.17080 4206 ft 291 kts 326°
2026-05-07 20:03 48.77816 44.16058 5074 ft 295 kts 358°
2026-05-07 20:04 48.79781 44.16695 5969 ft 298 kts 28°
2026-05-07 20:04 48.81336 44.18784 6874 ft 303 kts 49°
2026-05-07 20:04 48.82666 44.21281 7786 ft 305 kts 49°
2026-05-07 20:04 48.84004 44.23801 8683 ft 308 kts 49°
2026-05-07 20:05 48.85353 44.26343 9561 ft 311 kts 50°
2026-05-07 20:05 48.86753 44.28850 10393 ft 313 kts 43°
2026-05-07 20:05 48.88409 44.31018 11173 ft 315 kts 36°
2026-05-07 20:05 48.90210 44.32945 11957 ft 318 kts 32°
2026-05-07 20:06 48.92083 44.34777 12737 ft 322 kts 31°
2026-05-07 20:06 48.93957 44.36580 13505 ft 325 kts 32°
2026-05-07 20:06 48.95868 44.38447 14210 ft 328 kts 32°
2026-05-07 20:06 48.97784 44.40368 14882 ft 331 kts 33°
2026-05-07 20:07 48.99707 44.42339 15546 ft 335 kts 33°
2026-05-07 20:07 49.01636 44.44348 16207 ft 338 kts 34°
2026-05-07 20:07 49.03584 44.46395 16866 ft 341 kts 34°
2026-05-07 20:07 49.05546 44.48459 17526 ft 344 kts 34°
2026-05-07 20:08 49.07521 44.50539 18184 ft 347 kts 34°
2026-05-07 20:08 49.09522 44.52643 18738 ft 351 kts 34°
2026-05-07 20:08 49.11513 44.54736 19291 ft 354 kts 34°
2026-05-07 20:08 49.13547 44.56879 19857 ft 357 kts 34°
2026-05-07 20:09 49.15600 44.59038 20413 ft 360 kts 34°
2026-05-07 20:09 49.17670 44.61218 20966 ft 363 kts 34°
2026-05-07 20:09 49.19760 44.63422 21523 ft 366 kts 34°
2026-05-07 20:10 49.23988 44.67892 22612 ft 373 kts 34°
2026-05-07 20:10 49.26162 44.70196 22772 ft 387 kts 34°
2026-05-07 20:10 49.28405 44.72574 22954 ft 398 kts 34°
2026-05-07 20:10 49.30699 44.75010 23329 ft 403 kts 34°
2026-05-07 20:11 49.33010 44.77467 23732 ft 406 kts 34°
2026-05-07 20:11 49.35304 44.79905 24098 ft 409 kts 34°
2026-05-07 20:11 49.37651 44.82398 24465 ft 411 kts 34°
2026-05-07 20:11 49.40011 44.84908 24828 ft 414 kts 34°
2026-05-07 20:12 49.42379 44.87437 25187 ft 416 kts 34°
2026-05-07 20:12 49.44762 44.89990 25540 ft 418 kts 34°
2026-05-07 20:12 49.47154 44.92557 25886 ft 421 kts 34°
2026-05-07 20:12 49.49561 44.95138 26227 ft 423 kts 34°
2026-05-07 20:13 49.51985 44.97738 26567 ft 425 kts 34°
2026-05-07 20:13 49.54415 45.00350 26894 ft 428 kts 34°
2026-05-07 20:13 49.56827 45.02942 27204 ft 430 kts 34°
2026-05-07 20:13 49.59287 45.05583 27517 ft 432 kts 34°
2026-05-07 20:14 49.61762 45.08244 27824 ft 434 kts 34°
2026-05-07 20:14 49.64241 45.10916 28123 ft 436 kts 34°
2026-05-07 20:14 49.66836 45.13352 28405 ft 438 kts 26°
2026-05-07 20:14 49.69674 45.15092 28670 ft 440 kts 17°
2026-05-07 20:15 49.72625 45.16380 28921 ft 442 kts 15°
2026-05-07 20:15 49.75592 45.17667 29187 ft 444 kts 15°
2026-05-07 20:15 49.78528 45.18947 29437 ft 445 kts 16°
2026-05-07 20:15 49.81513 45.20254 29662 ft 447 kts 16°
2026-05-07 20:16 49.84511 45.21573 29881 ft 448 kts 16°
2026-05-07 20:16 49.87513 45.22895 30093 ft 449 kts 16°
2026-05-07 20:16 49.90527 45.24226 30234 ft 451 kts 16°
2026-05-07 20:16 49.93548 45.25560 30377 ft 452 kts 16°
2026-05-07 20:17 49.96581 45.26902 30519 ft 453 kts 16°
2026-05-07 20:17 49.99615 45.28246 30657 ft 454 kts 16°
2026-05-07 20:17 50.02654 45.29578 30773 ft 455 kts 15°
2026-05-07 20:17 50.05685 45.30757 30892 ft 455 kts 13°
2026-05-07 20:18 50.08777 45.31819 31017 ft 455 kts 12°
2026-05-07 20:18 50.11884 45.32804 31138 ft 456 kts 11°
2026-05-07 20:18 50.14992 45.33766 31269 ft 456 kts 11°
2026-05-07 20:18 50.18101 45.34751 31398 ft 456 kts 12°
2026-05-07 20:19 50.21200 45.35767 31520 ft 455 kts 12°
2026-05-07 20:19 50.24298 45.36813 31652 ft 455 kts 12°
2026-05-07 20:19 50.27391 45.37872 31779 ft 455 kts 12°
2026-05-07 20:19 50.30484 45.38936 31906 ft 455 kts 12°
2026-05-07 20:20 50.33572 45.40004 32037 ft 455 kts 12°
2026-05-07 20:20 50.36620 45.41059 32167 ft 454 kts 12°
2026-05-07 20:20 50.39703 45.42124 32297 ft 454 kts 12°
2026-05-07 20:20 50.42786 45.43192 32430 ft 453 kts 12°
2026-05-07 20:21 50.45865 45.44260 32560 ft 453 kts 12°
2026-05-07 20:21 50.48942 45.45327 32688 ft 452 kts 12°
2026-05-07 20:21 50.52009 45.46388 32846 ft 451 kts 12°
2026-05-07 20:21 50.55076 45.47445 32947 ft 452 kts 12°
2026-05-07 20:22 50.58115 45.48493 32969 ft 454 kts 12°
2026-05-07 20:22 50.64309 45.50636 32967 ft 456 kts 12°
2026-05-07 20:23 50.70510 45.52800 32962 ft 457 kts 12°
2026-05-07 20:23 50.73627 45.53894 32049 ft 460 kts 12°
2026-05-07 20:23 50.76692 45.54981 31601 ft 441 kts 13°
2026-05-07 20:23 50.79608 45.56055 31769 ft 420 kts 13°
2026-05-07 20:24 50.82417 45.57088 32024 ft 410 kts 13°
2026-05-07 20:24 50.85174 45.58075 32286 ft 406 kts 12°
2026-05-07 20:24 50.87945 45.59039 32554 ft 409 kts 12°
2026-05-07 20:24 50.90730 45.60004 32826 ft 412 kts 12°
2026-05-07 20:25 50.93546 45.60989 32941 ft 418 kts 12°
2026-05-07 20:25 50.99287 45.63034 32963 ft 433 kts 13°
2026-05-07 20:26 51.05117 45.65889 32965 ft 445 kts 25°
2026-05-07 20:26 51.10760 45.70130 32960 ft 452 kts 25°
2026-05-07 20:27 51.16464 45.74424 32967 ft 455 kts 25°
2026-05-07 20:27 51.22149 45.78695 32963 ft 455 kts 25°
2026-05-07 20:28 51.27886 45.83008 32964 ft 456 kts 25°
2026-05-07 20:28 51.33618 45.87349 32958 ft 456 kts 25°
2026-05-07 20:29 51.39345 45.91704 32949 ft 456 kts 25°
2026-05-07 20:29 51.45040 45.96025 32954 ft 456 kts 25°
2026-05-07 20:30 51.50773 46.00383 32949 ft 456 kts 25°
2026-05-07 20:30 51.56503 46.04777 32960 ft 456 kts 25°
2026-05-07 20:31 51.62185 46.09326 32962 ft 457 kts 26°
2026-05-07 20:31 51.67820 46.14042 32973 ft 457 kts 27°
2026-05-07 20:32 51.73422 46.18741 32969 ft 457 kts 27°
2026-05-07 20:32 51.79074 46.23425 32968 ft 457 kts 26°
2026-05-07 20:33 51.84735 46.28110 32967 ft 457 kts 26°
2026-05-07 20:33 51.90355 46.32789 32963 ft 457 kts 27°
2026-05-07 20:34 51.96008 46.37503 32961 ft 457 kts 27°
2026-05-07 20:34 52.01664 46.42228 32953 ft 457 kts 27°
2026-05-07 20:35 52.07317 46.46989 32959 ft 457 kts 27°
2026-05-07 20:35 52.12964 46.51765 32958 ft 458 kts 27°
2026-05-07 20:36 52.18577 46.56513 32958 ft 458 kts 27°
2026-05-07 20:36 52.24231 46.61283 32969 ft 458 kts 27°
2026-05-07 20:37 52.29884 46.66083 32967 ft 458 kts 27°
2026-05-07 20:37 52.35539 46.70906 32963 ft 458 kts 27°
2026-05-07 20:38 52.41152 46.75696 32963 ft 458 kts 27°
2026-05-07 20:38 52.46804 46.80543 32973 ft 458 kts 27°
2026-05-07 20:39 52.52450 46.85419 32964 ft 459 kts 27°
2026-05-07 20:39 52.58102 46.90298 32967 ft 459 kts 27°
2026-05-07 20:40 52.63717 46.95147 32967 ft 459 kts 27°
2026-05-07 20:40 52.69382 47.00056 32967 ft 460 kts 27°
2026-05-07 20:41 52.75047 47.04988 32976 ft 461 kts 27°
2026-05-07 20:41 52.80715 47.09935 32978 ft 461 kts 27°
2026-05-07 20:42 52.86342 47.14854 32981 ft 460 kts 28°
2026-05-07 20:42 52.92002 47.19821 32984 ft 460 kts 28°
2026-05-07 20:43 52.97655 47.24808 32993 ft 460 kts 28°
2026-05-07 20:43 53.03306 47.29800 32988 ft 460 kts 28°
2026-05-07 20:44 53.08950 47.34798 32987 ft 459 kts 28°
2026-05-07 20:44 53.14548 47.39775 32983 ft 459 kts 28°
2026-05-07 20:45 53.20179 47.44791 32983 ft 459 kts 28°
2026-05-07 20:45 53.25808 47.49816 32977 ft 459 kts 28°
2026-05-07 20:46 53.31431 47.54855 32976 ft 459 kts 28°
2026-05-07 20:46 53.37015 47.59882 32983 ft 459 kts 28°
2026-05-07 20:47 53.42634 47.64950 32981 ft 459 kts 28°
2026-05-07 20:47 53.48282 47.69930 32978 ft 459 kts 23°
2026-05-07 20:48 53.54222 47.73876 32982 ft 459 kts 21°
2026-05-07 20:48 53.60130 47.77770 32990 ft 459 kts 22°
2026-05-07 20:49 53.66074 47.81717 32990 ft 459 kts 22°
2026-05-07 20:49 53.72109 47.85245 32985 ft 460 kts 14°
2026-05-07 20:50 53.78333 47.87767 32981 ft 460 kts 14°
2026-05-07 20:50 53.84421 47.90773 32972 ft 459 kts 24°
2026-05-07 20:51 53.90018 47.94966 32970 ft 459 kts 24°
2026-05-07 20:51 53.95856 47.99389 32981 ft 459 kts 24°
2026-05-07 20:52 54.01698 48.03813 32976 ft 460 kts 24°
2026-05-07 20:52 54.07511 48.08216 32974 ft 461 kts 24°
2026-05-07 20:53 54.13368 48.12661 32981 ft 461 kts 24°
2026-05-07 20:53 54.19225 48.17131 32984 ft 461 kts 24°
2026-05-07 20:54 54.25077 48.21611 32974 ft 461 kts 24°
2026-05-07 20:54 54.30727 48.26770 32972 ft 461 kts 29°
2026-05-07 20:55 54.36289 48.32108 32966 ft 461 kts 29°
2026-05-07 20:55 54.41886 48.37486 32970 ft 461 kts 29°
2026-05-07 20:55 54.44671 48.40166 32653 ft 457 kts 29°
2026-05-07 20:56 54.47440 48.42838 31879 ft 452 kts 29°
2026-05-07 20:56 54.50157 48.45463 31173 ft 447 kts 29°
2026-05-07 20:56 54.52853 48.48068 30516 ft 442 kts 29°
2026-05-07 20:56 54.55485 48.50612 29861 ft 437 kts 29°
2026-05-07 20:57 54.58122 48.53169 29125 ft 433 kts 29°
2026-05-07 20:57 54.60733 48.55710 28413 ft 429 kts 29°
2026-05-07 20:57 54.63320 48.58235 27731 ft 425 kts 29°
2026-05-07 20:57 54.65884 48.60742 27071 ft 422 kts 29°
2026-05-07 20:58 54.68428 48.63232 26413 ft 419 kts 29°
2026-05-07 20:58 54.70927 48.65682 26036 ft 404 kts 29°
2026-05-07 20:58 54.73334 48.68043 25279 ft 394 kts 29°
2026-05-07 20:58 54.75714 48.70379 24656 ft 392 kts 29°
2026-05-07 20:59 54.78043 48.72672 24190 ft 389 kts 29°
2026-05-07 20:59 54.80388 48.74981 23716 ft 386 kts 29°
2026-05-07 20:59 54.82720 48.77274 23178 ft 384 kts 29°
2026-05-07 20:59 54.85038 48.79555 22651 ft 382 kts 29°
2026-05-07 21:00 54.87334 48.81826 22141 ft 379 kts 29°
2026-05-07 21:00 54.89603 48.84076 21387 ft 372 kts 29°
2026-05-07 21:00 54.91838 48.86294 20512 ft 368 kts 28°
2026-05-07 21:00 54.94047 48.88485 19677 ft 363 kts 28°
2026-05-07 21:01 54.96227 48.90659 18871 ft 359 kts 28°
2026-05-07 21:01 54.98352 48.92784 18069 ft 355 kts 28°
2026-05-07 21:01 55.00483 48.94912 17211 ft 351 kts 28°
2026-05-07 21:01 55.02585 48.97013 16396 ft 346 kts 28°
2026-05-07 21:02 55.04659 48.99083 15627 ft 341 kts 28°
2026-05-07 21:02 55.06706 49.01127 14872 ft 336 kts 28°
2026-05-07 21:02 55.08720 49.03141 14138 ft 332 kts 28°
2026-05-07 21:02 55.10708 49.05134 13376 ft 327 kts 28°
2026-05-07 21:03 55.12641 49.07077 12586 ft 323 kts 28°
2026-05-07 21:03 55.14574 49.09024 11799 ft 319 kts 28°
2026-05-07 21:03 55.16528 49.10783 11026 ft 313 kts 20°
2026-05-07 21:03 55.18599 49.11826 10264 ft 308 kts
2026-05-07 21:04 55.20698 49.12439 9462 ft 304 kts
2026-05-07 21:04 55.22778 49.13054 8625 ft 302 kts
2026-05-07 21:04 55.24837 49.13675 7799 ft 299 kts
2026-05-07 21:04 55.26880 49.14296 6989 ft 297 kts
2026-05-07 21:05 55.28875 49.14899 6290 ft 294 kts
2026-05-07 21:05 55.30930 49.15522 6051 ft 298 kts
2026-05-07 21:05 55.32947 49.16137 5968 ft 297 kts
2026-05-07 21:05 55.34987 49.16758 5975 ft 298 kts
2026-05-07 21:06 55.37030 49.17375 5978 ft 298 kts
2026-05-07 21:06 55.39075 49.17992 5982 ft 298 kts
2026-05-07 21:06 55.41120 49.18612 5980 ft 298 kts
2026-05-07 21:06 55.43165 49.19238 5978 ft 299 kts
2026-05-07 21:07 55.45214 49.19864 5978 ft 299 kts
2026-05-07 21:07 55.47265 49.20444 5976 ft 299 kts
2026-05-07 21:07 55.49291 49.20116 5978 ft 298 kts 343°
2026-05-07 21:07 55.51139 49.18498 5976 ft 298 kts 322°
2026-05-07 21:08 55.52556 49.15860 5870 ft 291 kts 307°
2026-05-07 21:08 55.53708 49.13116 5701 ft 265 kts 306°
2026-05-07 21:08 55.54754 49.10572 5365 ft 250 kts 306°
2026-05-07 21:08 55.55759 49.08111 4826 ft 246 kts 306°
2026-05-07 21:09 55.56758 49.05669 4231 ft 244 kts 306°
2026-05-07 21:09 55.57753 49.03238 3633 ft 244 kts 305°
2026-05-07 21:09 55.58735 49.00842 3256 ft 233 kts 305°
2026-05-07 21:09 55.59639 48.98644 3062 ft 217 kts 305°
2026-05-07 21:10 55.60516 48.96509 2717 ft 211 kts 304°
2026-05-07 21:10 55.61377 48.94417 2693 ft 213 kts 307°
2026-05-07 21:10 55.62535 48.92783 2685 ft 216 kts 338°
2026-05-07 21:10 55.64005 48.92412 2688 ft 216 kts
2026-05-07 21:11 55.65389 48.93386 2689 ft 216 kts 36°
2026-05-07 21:11 55.66630 48.94899 2688 ft 217 kts 36°
2026-05-07 21:11 55.69110 48.97915 2685 ft 218 kts 35°
2026-05-07 21:12 55.70187 48.99739 2676 ft 214 kts 66°
2026-05-07 21:12 55.70373 49.02257 2686 ft 205 kts 108°
2026-05-07 21:12 55.69695 49.04299 2687 ft 185 kts 132°
2026-05-07 21:12 55.68987 49.06085 2719 ft 168 kts 125°
2026-05-07 21:13 55.68360 49.07780 2599 ft 160 kts 126°
2026-05-07 21:13 55.67754 49.09382 2447 ft 155 kts 127°
2026-05-07 21:13 55.67162 49.10929 2248 ft 151 kts 127°
2026-05-07 21:13 55.66588 49.12425 2051 ft 143 kts 127°
2026-05-07 21:14 55.66041 49.13849 1874 ft 138 kts 127°
2026-05-07 21:14 55.65508 49.15234 1696 ft 136 kts 127°
2026-05-07 21:14 55.64977 49.16610 1513 ft 135 kts 126°
2026-05-07 21:14 55.64448 49.17982 1333 ft 135 kts 126°
2026-05-07 21:15 55.63918 49.19355 1153 ft 135 kts 125°
2026-05-07 21:15 55.63388 49.20730 980 ft 135 kts 124°
2026-05-07 21:15 55.62856 49.22103 799 ft 135 kts 124°
2026-05-07 21:15 55.62333 49.23459 630 ft 135 kts 124°
2026-05-07 21:16 55.61807 49.24822 489 ft 134 kts 124°
2026-05-07 21:16 55.61287 49.26162 413 ft 124 kts 123°
2026-05-07 21:16 55.60880 49.27215 414 ft 80 kts 124°
2026-05-07 21:16 55.60664 49.27774 419 ft 32 kts 124°
2026-05-07 21:17 55.60495 49.28215 413 ft 45 kts 125°
2026-05-07 21:17 55.60393 49.28532 417 ft 21 kts 84°
2026-05-07 21:17 55.60469 49.28670 416 ft 0 kts 37°
2026-05-07 21:18 55.60500 49.28710 415 ft 12 kts 34°
2026-05-07 21:18 55.60571 49.28807 416 ft 14 kts 59°
2026-05-07 21:19 55.60576 49.28992 416 ft 17 kts 94°
2026-05-07 21:19 55.60621 49.29184 409 ft 19 kts 43°
2026-05-07 21:19 55.60730 49.29323 416 ft 18 kts 34°
2026-05-07 21:19 55.60810 49.29467 414 ft 14 kts 95°
2026-05-07 21:20 55.60756 49.29625 412 ft 17 kts 124°
2026-05-07 21:20 55.60685 49.29811 413 ft 19 kts 124°
2026-05-07 21:20 55.60665 49.29861 413 ft 6 kts 124°
2026-05-07 21:20 55.60656 49.29962 416 ft 9 kts 68°
2026-05-07 21:21 55.60678 49.29996 416 ft 0 kts 31°
2026-05-07 21:21 55.60688 49.30009 416 ft 2 kts 37°
2026-05-07 21:21 55.60696 49.30020 416 ft 0 kts 37°